Good Hope, IL

7:22 PM CST on February 24, 2017 (GMT -0600)
Macomb Municipal

Weather History for KMQB - December, 2013

Change the Weather History Date:

Thursday, December 26, 2013

  Actual Average (KBRL) Record (KBRL)
Temperature  
Mean Temperature 26 °F -  
Max Temperature 37 °F 27 °F 59 °F (1907)
Min Temperature 16 °F 12 °F -16 °F (1914)
Degree Days  
Heating Degree Days 38    
Moisture  
Dew Point 25 °F    
Average Humidity 85    
Maximum Humidity 97    
Minimum Humidity 73    
Precipitation  
Precipitation 0.00 in - - ()
Sea Level Pressure  
Sea Level Pressure 30.25 in    
Wind  
Wind Speed 9 mph (SW)    
Max Wind Speed 17 mph    
Max Gust Speed 22 mph    
Visibility 10 miles    
Events      
Averages and records for this station are not official NWS values.
T = Trace of Precipitation, MM = Missing Value Source: NWS Daily Summary

Daily Weather History Graph

Daily Weather History Graph

Search for Another Location

Airport or City:

Trip Planner

Search our weather history database for the weather conditions in past years. The results will help you decide how hot, cold, wet, or windy it might be!

Date:

Astronomy

Dec. 26, 2013 Rise Set
Actual Time 7:24 AM CST 4:42 PM CST
Civil Twilight 6:53 AM CST 5:12 PM CST
Nautical Twilight 6:19 AM CST 5:47 PM CST
Astronomical Twilight 5:46 AM CST 6:20 PM CST
Moon 12:52 AM CST (12/26) 12:18 PM CST (12/26)
Length of Visible Light 10h 19m
Length of Day
9h 17m
Last Quarter, 38% of the Moon is Illuminated
Dec 26
Last Quarter
Jan 1
New
Jan 7
First Quarter
Jan 15
Full
Jan 23
Last Quarter

Hourly Weather History & Observations

Time (CST) Temp. Windchill Dew Point Humidity Pressure Visibility Wind Dir Wind Speed Gust Speed Precip Events Conditions
12:15 AM 27.9 °F 19.8 °F 25.7 °F 92% 30.25 in 10.0 mi West 8.1 mph - N/A   Mostly Cloudy
12:35 AM 26.8 °F 15.9 °F 24.3 °F 90% 30.25 in 10.0 mi West 12.7 mph - N/A   Scattered Clouds
12:55 AM 26.8 °F 15.9 °F 22.8 °F 85% 30.26 in 10.0 mi WNW 12.7 mph - N/A   Clear
1:15 AM 25.7 °F 14.6 °F 21.7 °F 85% 30.28 in 10.0 mi WNW 12.7 mph - N/A   Clear
1:35 AM 24.6 °F 14.4 °F 21.0 °F 86% 30.29 in 10.0 mi WNW 10.4 mph - N/A   Clear
1:55 AM 23.0 °F 12.4 °F 19.6 °F 87% 30.29 in 10.0 mi WNW 10.4 mph - N/A   Clear
2:15 AM 21.6 °F 12.1 °F 18.5 °F 88% 30.29 in 10.0 mi WNW 8.1 mph - N/A   Clear
2:35 AM 20.3 °F 13.8 °F 18.0 °F 91% 30.29 in 10.0 mi WNW 4.6 mph - N/A   Clear
2:55 AM 19.2 °F 14.1 °F 17.1 °F 91% 30.29 in 10.0 mi WSW 3.5 mph - N/A   Clear
3:15 AM 17.4 °F 10.4 °F 16.0 °F 94% 30.29 in 10.0 mi SW 4.6 mph - N/A   Clear
3:35 AM 17.4 °F 10.4 °F 16.3 °F 96% 30.28 in 10.0 mi WSW 4.6 mph - N/A   Clear
3:55 AM 17.6 °F 9.3 °F 16.2 °F 94% 30.28 in 10.0 mi SW 5.8 mph - N/A   Clear
4:15 AM 19.4 °F 11.5 °F 18.1 °F 95% 30.28 in 10.0 mi SW 5.8 mph - N/A   Clear
4:35 AM 19.2 °F 12.5 °F 18.0 °F 95% 30.28 in 10.0 mi SW 4.6 mph - N/A   Clear
4:55 AM 16.3 °F 7.8 °F 14.9 °F 94% 30.27 in 10.0 mi South 5.8 mph - N/A   Clear
5:15 AM 17.2 °F 10.2 °F 16.5 °F 97% 30.28 in 10.0 mi SW 4.6 mph - N/A   Clear
5:35 AM 16.3 °F 6.7 °F 15.1 °F 95% 30.28 in 10.0 mi SSW 6.9 mph - N/A   Scattered Clouds
5:55 AM 18.1 °F 12.9 °F 16.5 °F 93% 30.28 in 10.0 mi South 3.5 mph - N/A   Overcast
6:15 AM 20.8 °F 10.4 °F 19.4 °F 94% 30.28 in 10.0 mi SW 9.2 mph - N/A   Overcast
6:35 AM 21.7 °F 13.2 °F 19.2 °F 90% 30.29 in 10.0 mi SW 6.9 mph - N/A   Mostly Cloudy
6:55 AM 20.7 °F 11.0 °F 18.3 °F 91% 30.30 in 10.0 mi SW 8.1 mph - N/A   Scattered Clouds
7:15 AM 20.3 °F 10.6 °F 18.0 °F 91% 30.30 in 10.0 mi SW 8.1 mph - N/A   Clear
7:35 AM 19.9 °F 11.1 °F 17.6 °F 91% 30.30 in 10.0 mi SW 6.9 mph - N/A   Clear
7:55 AM 19.9 °F 12.1 °F 17.6 °F 91% 30.30 in 10.0 mi SW 5.8 mph - N/A   Clear
8:15 AM 20.5 °F 12.8 °F 18.1 °F 91% 30.30 in 10.0 mi SSW 5.8 mph - N/A   Clear
8:35 AM 22.1 °F 13.7 °F 19.2 °F 89% 30.30 in 10.0 mi South 6.9 mph - N/A   Clear
8:55 AM 24.1 °F 16.0 °F 20.3 °F 85% 30.30 in 10.0 mi SSW 6.9 mph - N/A   Clear
9:15 AM 25.9 °F 18.2 °F 21.2 °F 82% 30.30 in 10.0 mi SSW 6.9 mph - N/A   Clear
9:35 AM 27.3 °F 17.7 °F 21.7 °F 80% 30.31 in 10.0 mi SSW 10.4 mph - N/A   Clear
9:55 AM 28.4 °F 19.7 °F 22.1 °F 77% 30.31 in 10.0 mi SSW 9.2 mph - N/A   Clear
10:15 AM 29.8 °F 21.5 °F 22.3 °F 73% 30.31 in 10.0 mi SSW 9.2 mph - N/A   Clear
10:35 AM 31.1 °F 23.1 °F 23.4 °F 73% 30.30 in 10.0 mi South 9.2 mph - N/A   Clear
10:55 AM 32.0 °F 22.1 °F 24.3 °F 73% 30.28 in 10.0 mi SSW 13.8 mph - N/A   Clear
11:15 AM 32.4 °F 24.0 °F 25.3 °F 75% 30.28 in 10.0 mi SSW 10.4 mph - N/A   Clear
11:35 AM 32.9 °F 22.8 °F 25.7 °F 75% 30.26 in 10.0 mi SSW 15.0 mph - N/A   Clear
11:55 AM 34.0 °F 25.5 °F 27.1 °F 76% 30.26 in 10.0 mi SSW 11.5 mph 17.3 mph N/A   Mostly Cloudy
12:15 PM 34.9 °F 26.2 °F 27.5 °F 74% 30.25 in 10.0 mi SSW 12.7 mph - N/A   Mostly Cloudy
12:35 PM 35.1 °F 26.4 °F 28.4 °F 77% 30.24 in 10.0 mi SSW 12.7 mph - N/A   Scattered Clouds
12:55 PM 35.8 °F 27.3 °F 28.9 °F 76% 30.22 in 10.0 mi SSW 12.7 mph - N/A   Scattered Clouds
1:15 PM 36.7 °F 27.2 °F 29.1 °F 74% 30.21 in 10.0 mi SSW 16.1 mph 21.9 mph N/A   Mostly Cloudy
1:35 PM 37.0 °F 27.7 °F 29.3 °F 74% 30.21 in 10.0 mi SSW 16.1 mph 20.7 mph N/A   Clear
1:55 PM 37.4 °F 27.8 °F 29.7 °F 74% 30.20 in 10.0 mi SSW 17.3 mph - N/A   Clear
2:15 PM 37.4 °F 29.3 °F 30.2 °F 75% 30.20 in 10.0 mi SSW 12.7 mph 17.3 mph N/A   Clear
2:35 PM 37.4 °F 28.9 °F 30.6 °F 76% 30.19 in 10.0 mi SSW 13.8 mph - N/A   Scattered Clouds
2:55 PM 37.4 °F 29.3 °F 30.9 °F 77% 30.19 in 10.0 mi SSW 12.7 mph - N/A   Clear
3:15 PM 37.8 °F 30.2 °F 31.1 °F 77% 30.19 in 10.0 mi SSW 11.5 mph 17.3 mph N/A   Clear
3:35 PM 37.6 °F 30.0 °F 31.1 °F 77% 30.18 in 10.0 mi South 11.5 mph - N/A   Clear
3:55 PM 37.6 °F 29.1 °F 31.5 °F 79% 30.17 in 10.0 mi South 13.8 mph - N/A   Scattered Clouds
4:15 PM 37.4 °F 30.3 °F 31.8 °F 80% 30.18 in 10.0 mi South 10.4 mph - N/A   Overcast
4:35 PM 37.4 °F 31.4 °F 32.0 °F 81% 30.19 in 10.0 mi SSW 8.1 mph - N/A   Overcast
4:55 PM 37.4 °F 30.3 °F 31.6 °F 80% 30.18 in 10.0 mi SSW 10.4 mph - N/A   Mostly Cloudy
5:15 PM 37.2 °F 30.6 °F 31.1 °F 79% 30.19 in 10.0 mi SSW 9.2 mph - N/A   Scattered Clouds
5:35 PM 37.0 °F 29.8 °F 31.1 °F 79% 30.20 in 10.0 mi SW 10.4 mph - N/A   Scattered Clouds
5:55 PM 36.9 °F 29.6 °F 31.1 °F 80% 30.20 in 10.0 mi SW 10.4 mph - N/A   Clear
6:15 PM 37.6 °F 29.6 °F 31.1 °F 77% 30.20 in 10.0 mi SW 12.7 mph - N/A   Clear
6:35 PM 37.2 °F 29.1 °F 31.6 °F 80% 30.21 in 10.0 mi SW 12.7 mph - N/A   Clear
6:55 PM 36.5 °F 29.2 °F 31.8 °F 83% 30.22 in 10.0 mi SW 10.4 mph - N/A   Clear
7:15 PM 35.8 °F 28.8 °F 31.6 °F 85% 30.22 in 10.0 mi SW 9.2 mph - N/A   Clear
7:35 PM 35.1 °F 27.9 °F 31.8 °F 88% 30.23 in 10.0 mi SW 9.2 mph - N/A   Clear
7:55 PM 34.7 °F 27.5 °F 31.6 °F 89% 30.23 in 10.0 mi SW 9.2 mph - N/A   Clear
8:15 PM 34.2 °F 26.8 °F 31.5 °F 90% 30.23 in 10.0 mi SW 9.2 mph - N/A   Clear
8:35 PM 33.6 °F 26.2 °F 30.9 °F 90% 30.24 in 10.0 mi SW 9.2 mph - N/A   Clear
8:55 PM 33.3 °F 26.4 °F 30.6 °F 90% 30.23 in 10.0 mi WSW 8.1 mph - N/A   Clear
9:15 PM 33.3 °F 25.7 °F 30.2 °F 89% 30.24 in 10.0 mi WSW 9.2 mph - N/A   Clear
9:35 PM 33.1 °F 25.5 °F 30.2 °F 89% 30.24 in 10.0 mi WSW 9.2 mph - N/A   Clear
9:55 PM 32.9 °F 26.7 °F 30.0 °F 89% 30.25 in 10.0 mi WSW 6.9 mph - N/A   Clear
10:15 PM 31.6 °F 26.0 °F 29.3 °F 91% 30.25 in 10.0 mi WSW 5.8 mph - N/A   Clear
10:35 PM 31.1 °F 24.5 °F 28.9 °F 92% 30.26 in 10.0 mi WSW 6.9 mph - N/A   Clear
10:55 PM 31.8 °F 25.4 °F 29.3 °F 90% 30.26 in 10.0 mi WSW 6.9 mph - N/A   Clear
11:15 PM 31.3 °F 25.6 °F 28.6 °F 90% 30.26 in 10.0 mi WSW 5.8 mph - N/A   Clear
11:35 PM 31.6 °F 25.1 °F 29.3 °F 91% 30.26 in 10.0 mi West 6.9 mph - N/A   Clear
11:55 PM 31.6 °F 25.1 °F 29.1 °F 90% 30.26 in 10.0 mi WSW 6.9 mph - N/A   Clear